GORIZONT 24 [-]

Last updated on Jan. 23, 2021, 7:21 a.m. UTC

1 21759U 91074A   21022.49761581 -.00000068  00000-0  00000-0 0  9998
2 21759  15.2286 358.4064 0015395 219.8946   5.9026  0.98442352105546
UTC
Height (km)
Latitude
Longitude
Inclination
Orbital Period
UTC large
Height (km)
Speed (km/s)
/
Latitude / Longitude
Inclination (degrees)
Orbital Period (minutes)
Azimuth
Elevation
Range (km)
Doppler Factor
iOS Compass Heading
iOS Angle

Next 30 passes for location: Hong Kong

Rise time Rise Azimuth (degrees) Set time Set Azimuth (degrees) Duration Max altitude (degrees)

No matching passes for this satellites